Location: Unspecified
(0.0000°N, 0.0000°E)
Time: 06:39:25
(UTC+02:00)

PROBA 2 - Visible Passes

Search period start: 07 July 2015 00:00
Search period end: 17 July 2015 00:00
Orbit: 706 x 726 km, 98.3° (Epoch: 05 July)

Date Brightness Start Highest point End Pass type
(mag) Time Alt. Az. Time Alt. Az. Time Alt. Az.
08 Jul ? 20:52:24 10° NNW 20:56:49 34° W 21:01:10 10° SW visible
10 Jul ? 20:48:22 10° N 20:52:53 38° WNW 20:57:22 10° SW visible
11 Jul ? 07:34:57 10° SE 07:38:33 22° E 07:42:16 10° NNE visible
12 Jul ? 20:44:20 10° N 20:48:57 43° WNW 20:53:33 10° SSW visible
13 Jul ? 07:31:17 10° SE 07:34:36 20° E 07:38:07 10° NNE visible
13 Jul ? 21:35:01 10° WNW 21:36:03 10° W 21:36:39 10° W visible
14 Jul ? 20:40:21 10° N 20:45:02 48° WNW 20:49:43 10° SSW visible
15 Jul ? 07:27:38 10° ESE 07:30:39 18° E 07:33:54 10° NE visible
15 Jul ? 21:30:08 10° NW 21:32:06 12° W 21:33:43 10° W visible
16 Jul ? 20:36:22 10° N 20:41:07 55° WNW 20:45:52 10° SSW visible
